Regional Weather Roundup
Issued by NWS

Home | Current Version | Previous Version | Graphics & Text | Print | Product List | Glossary On
Versions: 1 2 3 4 5 6 7 8 9 10 11 12 13 14 15 16 17 18 19 20 21 22 23 24 25 26 27 28 29 30 31 32 33 34 35 36 37 38 39 40 41 42 43 44 45 46 47 48 49 50
804
ASUS43 KLMK 281002
RWRKY
KENTUCKY REGIONAL WEATHER ROUNDUP
NATIONAL WEATHER SERVICE LOUISVILLE KY
600 AM EDT SAT MAY 28 2016

NOTE "FAIR" INDICATES FEW OR NO CLOUDS BELOW 12,000 FEET
WITH NO SIGNIFICANT WEATHER AND/OR OBSTRUCTIONS TO VISIBILITY.

KYZ001>023-026-027-061>063-070>075-281100-
WESTERN AND SOUTH CENTRAL KENTUCKY

CITY           SKY/WX    TMP DP  RH WIND       PRES   REMARKS
PADUCAH        CLOUDY    70  64  81 S5        29.94R
HENDERSON      CLOUDY    72  63  73 SE6       29.96R
OWENSBORO      CLOUDY    71  67  87 SE8       29.99R
HOPKINSVILLE   NOT AVBL
BOWLING GREEN  CLOUDY    70  67  90 SE5       30.02R
GLASGOW        NOT AVBL
$$

KYZ024-025-028>034-038-045-046-053-281100-
NORTH CENTRAL KENTUCKY

CITY           SKY/WX    TMP DP  RH WIND       PRES   REMARKS
LOUISVILLE/SDF CLOUDY    70  66  87 SE7       30.02R
LOUISVILLE/LOU CLOUDY    70  66  87 SE5       30.03R
FORT KNOX      CLOUDY    69  66  90 S5        30.02R
$$

KYZ035>037-039>044-047>052-055>060-089>105-281100-
NORTHEAST KENTUCKY

CITY           SKY/WX    TMP DP  RH WIND       PRES   REMARKS
LEXINGTON      CLEAR     67  63  87 SE7       30.07R
COVINGTON      NOT AVBL
FRANKFORT      CLEAR     67  63  87 SE5       30.04R
$$

KYZ054-064>069-076>088-106>120-281100-
SOUTHEAST KENTUCKY

CITY           SKY/WX    TMP DP  RH WIND       PRES   REMARKS
JACKSON        PTCLDY    66  63  90 CALM      30.11R
LONDON         CLEAR     63  61  93 CALM      30.10R
SOMERSET       NOT AVBL
MIDDLESBORO    NOT AVBL
MONTICELLO     SUNNY     68  63  84 W9        30.09R
$$





USA.gov is the U.S. government's official web portal to all federal, state and local government web resources and services.